When you browse on this site, cookies collect data to enhance your experience and personalize the content and advertising you see.
Visit our Privacy Policy to learn more. By continuing to use the site, you agree to this use of cookies and data.
  • în România
  • Lista ţărilor
  • Pe 7 zile
  • Temperatura apei
  • Meteo pe hartă
  • Widget-uri
  • user-avatar
    Intrare

    Meteo pe oră la Newcastle

    Astăzi, 7 Aprilie, Marţi

    Timp Temperatura Precipitaţii Vânt Presiune Umiditate
    00:00 +5°C° 0 mm 2 m/s 623 mmHg 72%
    01:00 +6°C° 0 mm 1 m/s 623 mmHg 73%
    02:00 +6°C° 0 mm 1 m/s 623 mmHg 74%
    03:00 +5°C° 0 mm 1 m/s 623 mmHg 75%
    04:00 +5°C° 0 mm 1 m/s 623 mmHg 76%
    05:00 +6°C° 0 mm 1 m/s 624 mmHg 70%
    06:00 +7°C° 0 mm 1 m/s 624 mmHg 63%
    07:00 +8°C° 0 mm 2 m/s 625 mmHg 57%
    08:00 +9°C° 0 mm 3 m/s 626 mmHg 50%
    09:00 +11°C° 0 mm 4 m/s 626 mmHg 42%
    10:00 +13°C° 0 mm 5 m/s 627 mmHg 35%
    11:00 +13°C° 0 mm 5 m/s 627 mmHg 33%
    12:00 +14°C° 0 mm 6 m/s 627 mmHg 31%
    13:00 +15°C° 0 mm 6 m/s 627 mmHg 29%
    14:00 +14°C° 0 mm 6 m/s 627 mmHg 29%
    15:00 +14°C° 0 mm 5 m/s 626 mmHg 28%
    16:00 +14°C° 0 mm 5 m/s 626 mmHg 27%
    17:00 +13°C° 0 mm 4 m/s 625 mmHg 32%
    18:00 +11°C° 0 mm 3 m/s 625 mmHg 37%
    19:00 +9°C° 0 mm 2 m/s 624 mmHg 42%
    20:00 +10°C° 0 mm 1 m/s 624 mmHg 44%
    21:00 +9°C° 0 mm 1 m/s 624 mmHg 46%
    22:00 +8°C° 0 mm 1 m/s 624 mmHg 49%
    23:00 +8°C° 0 mm 1 m/s 624 mmHg 49%

    Mâine, 8 Aprilie, Miercuri

    Timp Temperatura Precipitaţii Vânt Presiune Umiditate
    00:00 +7°C° 0 mm 1 m/s 623 mmHg 50%
    01:00 +7°C° 0 mm 1 m/s 623 mmHg 51%
    02:00 +6°C° 0 mm 1 m/s 623 mmHg 51%
    03:00 +5°C° 0 mm 2 m/s 623 mmHg 51%
    04:00 +5°C° 0 mm 2 m/s 623 mmHg 51%
    05:00 +7°C° 0 mm 2 m/s 623 mmHg 47%
    06:00 +8°C° 0 mm 2 m/s 624 mmHg 43%
    07:00 +10°C° 0 mm 3 m/s 624 mmHg 39%
    08:00 +12°C° 0 mm 4 m/s 625 mmHg 35%
    09:00 +13°C° 0 mm 5 m/s 625 mmHg 31%
    10:00 +15°C° 0 mm 6 m/s 626 mmHg 27%
    11:00 +16°C° 0 mm 7 m/s 625 mmHg 28%
    12:00 +16°C° 0 mm 8 m/s 625 mmHg 28%
    13:00 +17°C° 0 mm 8 m/s 625 mmHg 28%
    14:00 +15°C° 0.4 mm 7 m/s 624 mmHg 36%
    15:00 +13°C° 0.4 mm 5 m/s 623 mmHg 44%
    16:00 +12°C° 0.4 mm 4 m/s 622 mmHg 52%
    17:00 +10°C° 0.9 mm 3 m/s 622 mmHg 62%
    18:00 +9°C° 0.9 mm 2 m/s 622 mmHg 72%
    19:00 +9°C° 0.9 mm 1 m/s 622 mmHg 82%
    20:00 +7°C° 1.7 mm 2 m/s 621 mmHg 84%
    21:00 +5°C° 1.7 mm 3 m/s 621 mmHg 87%
    22:00 +4°C° 1.7 mm 4 m/s 621 mmHg 90%
    23:00 +3°C° 0.6 mm 3 m/s 621 mmHg 90%

    Poimâine, 9 Aprilie, Joi

    Timp Temperatura Precipitaţii Vânt Presiune Umiditate
    00:00 +4°C° 0.6 mm 2 m/s 621 mmHg 89%
    01:00 +3°C° 0.6 mm 2 m/s 621 mmHg 88%
    02:00 +3°C° 1.1 mm 2 m/s 622 mmHg 89%
    03:00 +1°C° 1.1 mm 3 m/s 622 mmHg 89%
    04:00 -1°C° 1.1 mm 4 m/s 622 mmHg 89%
    05:00 -1°C° 0.1 mm 4 m/s 622 mmHg 87%
    06:00 +1°C° 0.1 mm 3 m/s 623 mmHg 85%
    07:00 +1°C° 0.1 mm 3 m/s 623 mmHg 83%
    08:00 +1°C° 0.2 mm 4 m/s 624 mmHg 79%
    09:00 +3°C° 0.2 mm 4 m/s 624 mmHg 75%
    10:00 +2°C° 0.2 mm 5 m/s 624 mmHg 72%
    11:00 +3°C° 0.3 mm 5 m/s 624 mmHg 67%
    12:00 +5°C° 0.3 mm 5 m/s 624 mmHg 62%
    13:00 +6°C° 0.3 mm 4 m/s 624 mmHg 57%
    14:00 +6°C° 0.1 mm 4 m/s 624 mmHg 56%
    15:00 +6°C° 0.1 mm 4 m/s 623 mmHg 54%
    16:00 +7°C° 0.1 mm 3 m/s 623 mmHg 52%
    17:00 +5°C° 0 mm 3 m/s 623 mmHg 58%
    18:00 +5°C° 0 mm 2 m/s 623 mmHg 64%
    19:00 +5°C° 0 mm 1 m/s 622 mmHg 69%
    20:00 +4°C° 0 mm 1 m/s 622 mmHg 71%
    21:00 +4°C° 0 mm 1 m/s 623 mmHg 73%
    22:00 +3°C° 0 mm 1 m/s 623 mmHg 74%
    23:00 +3°C° 0 mm 1 m/s 622 mmHg 75%

    10 Aprilie, Vineri

    Timp Temperatura Precipitaţii Vânt Presiune Umiditate
    00:00 +3°C° 0 mm 1 m/s 622 mmHg 76%
    01:00 +2°C° 0 mm 1 m/s 622 mmHg 76%
    02:00 +2°C° 0 mm 1 m/s 622 mmHg 77%
    03:00 +2°C° 0 mm 1 m/s 621 mmHg 78%
    04:00 +2°C° 0 mm 1 m/s 621 mmHg 79%
    05:00 +3°C° 0 mm 1 m/s 622 mmHg 73%
    06:00 +4°C° 0 mm 1 m/s 622 mmHg 68%
    07:00 +6°C° 0 mm 1 m/s 623 mmHg 62%
    08:00 +7°C° 0 mm 1 m/s 623 mmHg 55%
    09:00 +9°C° 0 mm 1 m/s 623 mmHg 48%
    10:00 +10°C° 0 mm 1 m/s 624 mmHg 40%
    11:00 +11°C° 0 mm 1 m/s 624 mmHg 37%
    12:00 +12°C° 0 mm 2 m/s 624 mmHg 34%
    13:00 +13°C° 0 mm 2 m/s 623 mmHg 31%
    14:00 +14°C° 0 mm 2 m/s 623 mmHg 30%
    15:00 +14°C° 0 mm 2 m/s 623 mmHg 29%
    16:00 +14°C° 0 mm 2 m/s 622 mmHg 28%
    17:00 +13°C° 0 mm 1 m/s 622 mmHg 32%
    18:00 +11°C° 0 mm 1 m/s 621 mmHg 37%
    19:00 +9°C° 0 mm 1 m/s 621 mmHg 42%
    20:00 +8°C° 0 mm 0 m/s 621 mmHg 43%
    21:00 +7°C° 0 mm 0 m/s 621 mmHg 45%
    22:00 +7°C° 0 mm 0 m/s 621 mmHg 46%
    23:00 +6°C° 0 mm 0 m/s 621 mmHg 47%

    11 Aprilie, Sâmbătă

    Timp Temperatura Precipitaţii Vânt Presiune Umiditate
    00:00 +6°C° 0 mm 0 m/s 621 mmHg 47%
    01:00 +7°C° 0 mm 1 m/s 620 mmHg 48%
    02:00 +6°C° 0 mm 1 m/s 620 mmHg 49%
    03:00 +6°C° 0 mm 1 m/s 620 mmHg 49%
    04:00 +6°C° 0 mm 1 m/s 620 mmHg 50%
    05:00 +8°C° 0 mm 1 m/s 621 mmHg 48%
    06:00 +9°C° 0 mm 1 m/s 622 mmHg 46%
    07:00 +11°C° 0 mm 1 m/s 623 mmHg 44%
    08:00 +12°C° 0 mm 1 m/s 623 mmHg 42%
    09:00 +14°C° 0 mm 1 m/s 624 mmHg 41%
    10:00 +16°C° 0 mm 2 m/s 625 mmHg 39%
    11:00 +17°C° 0 mm 2 m/s 625 mmHg 35%
    12:00 +18°C° 0 mm 3 m/s 625 mmHg 32%
    13:00 +19°C° 0 mm 3 m/s 625 mmHg 29%
    14:00 +19°C° 0 mm 4 m/s 624 mmHg 28%
    15:00 +19°C° 0 mm 4 m/s 624 mmHg 27%
    16:00 +19°C° 0 mm 5 m/s 624 mmHg 26%
    17:00 +17°C° 0 mm 4 m/s 624 mmHg 31%
    18:00 +15°C° 0 mm 4 m/s 623 mmHg 37%
    19:00 +13°C° 0 mm 3 m/s 623 mmHg 42%
    20:00 +12°C° 0 mm 3 m/s 623 mmHg 44%
    21:00 +12°C° 0 mm 2 m/s 623 mmHg 46%
    22:00 +10°C° 0 mm 2 m/s 623 mmHg 48%
    23:00 +11°C° 0 mm 1 m/s 623 mmHg 50%

    12 Aprilie, Duminică

    Timp Temperatura Precipitaţii Vânt Presiune Umiditate
    00:00 +10°C° 0 mm 1 m/s 622 mmHg 51%
    01:00 +10°C° 0 mm 1 m/s 622 mmHg 53%
    02:00 +8°C° 0 mm 2 m/s 622 mmHg 55%
    03:00 +8°C° 0 mm 2 m/s 622 mmHg 57%
    04:00 +7°C° 0 mm 2 m/s 622 mmHg 59%
    05:00 +8°C° 0 mm 3 m/s 623 mmHg 59%
    06:00 +9°C° 0 mm 3 m/s 623 mmHg 58%
    07:00 +10°C° 0 mm 4 m/s 624 mmHg 57%
    08:00 +11°C° 0 mm 4 m/s 624 mmHg 53%
    09:00 +12°C° 0 mm 5 m/s 625 mmHg 49%
    10:00 +13°C° 0 mm 5 m/s 625 mmHg 45%
    11:00 +14°C° 0 mm 5 m/s 625 mmHg 44%
    12:00 +14°C° 0 mm 4 m/s 625 mmHg 42%
    13:00 +15°C° 0 mm 4 m/s 625 mmHg 41%
    14:00 +15°C° 0.1 mm 4 m/s 625 mmHg 43%
    15:00 +14°C° 0.1 mm 4 m/s 624 mmHg 46%
    16:00 +14°C° 0.1 mm 4 m/s 624 mmHg 49%
    17:00 +12°C° 0.1 mm 3 m/s 623 mmHg 53%
    18:00 +11°C° 0.1 mm 3 m/s 623 mmHg 57%
    19:00 +10°C° 0.1 mm 3 m/s 623 mmHg 61%
    20:00 +10°C° 0.3 mm 2 m/s 623 mmHg 62%
    21:00 +10°C° 0.3 mm 1 m/s 623 mmHg 64%
    22:00 +10°C° 0.3 mm 1 m/s 624 mmHg 66%
    23:00 +9°C° 0 mm 1 m/s 623 mmHg 64%
    Arată mai mult